STARLINK-32559, 61915

Orbit data source: Space-Track

STARLINK-32559, 61915 is a payload satellite owned by SpaceX/Seattle (US) in LEO that was launched on Mon, 11 Nov 2024 UTC via an FALCON 9 launch vehicle from the Air Force Eastern Test Range (AFETR). Payload-class satellites include a variety of spacecraft equipped with specific instruments for various scientific and technological missions. These include communications satellites like Starlink; space stations such as the ISS; scientific satellites like the Hubble; Earth observation satellites from companies like Planet Labs, Umbra, and HawkEye 360; GPS; miniature CubeSats for education and research; and military/defense satellites.

Loading next visibility...
Identifier
61915, 2024-207D
Orbit
LEO
Country
Flag of USUS
Related business
Manufacturer
SpaceX/Seattle
Mission
Operational Commercial Communications
Bus & Motor
STARLINK V2M, Unknown motor
Mass
730 kg wet, ~700 kg dry
Launch date (UTC)
2024-11-11 (1 year ago)
Launch vehicle
FALCON 9
Launch site
Air Force Eastern Test Range (AFETR)
Object type
Payload
Rocket body
Debris
Shape & HBR
Box + 2 Pan, 17.7 m
Radar Cross Section
33.884 m², Large (>1 m²)

Expand to show TLE details & history
Last TLE update: 17 hours ago

TLE from 17 hours ago
0 STARLINK-32559
1 61915U 24207D   25340.57188154  .00043011  00000-0  15623-2 0  9998
2 61915  43.0018  87.3862 0001358 257.6693 102.4006 15.27604035 60483
Epoch: 2025-12-06T13:43Z
TLE epoch observation values (Epoch: 2025-12-06T13:43:30.565Z)
Latitude
-0.00005°
Longitude
165.91109°
Altitude
482.953 km
Speed
7.626 km/s
True Right ascension
05h 49m 32s
True Declination
0° 00' 00"
Sunlit
Object was in full shadow at epoch
Visualization orbit readout
Latitude
Unknown
Longitude
Unknown
Altitude
Unknown
Speed
Unknown
Apparent Right ascension
Unknown
Apparent Declination
Unknown
Sunlit
N/A
Visualization observer readout
Local Sidereal Time
04:22:07
Azimuth
Unknown
Elevation
Unknown
Doppler factor
Unknown
Orbital elements
Apogee altitude
485.854 km
Perigee altitude
483.99 km
Semi-major axis
6,863.059 km
Eccentricity
0.00014
Inclination
43.0018°
RAAN
87.3862°
Arg. of periapsis
257.6693°
True anomaly
102.4158°
Mean anomaly
102.4006°
Eccentric anomaly
102.4082°
Mean motion
3.81739 °/min
Orbital period
94.31 mins
BSTAR
0.0015623
Loading maneuver chart data...
Computing Atmospheric mass density...
Loading historical data...
Loading historical data...
Loading historical data...
Loading historical data...
Loading historical data...
Loading historical data...
Loading historical data...

Documentation

Showing up to 5 results
|